| time (UTC) | temp F | wind direction | speed MPH | gust MPH | rain 1hr in | rain 24hr in | rain mn in | humidity % | barometer mb |
| 20260831024826 | 74 | 360 | 3.0 | 8.0 | 0.00 | 0.29 | 0.28 | 89 | 1012.3 |
| 20260831024335 | 74 | 360 | 4.0 | 10.0 | 0.00 | 0.29 | 0.28 | 89 | 1012.5 |
| 20260831023823 | 74 | 360 | 5.0 | 11.0 | 0.00 | 0.29 | 0.28 | 89 | 1012.6 |
| 20260831023333 | 74 | 360 | 5.0 | 11.0 | 0.00 | 0.29 | 0.28 | 89 | 1012.7 |
| 20260831022822 | 74 | 360 | 4.0 | 10.0 | 0.00 | 0.29 | 0.28 | 89 | 1012.1 |
| 20260831022326 | 74 | 360 | 4.0 | 9.0 | 0.00 | 0.29 | 0.28 | 89 | 1012.2 |
| 20260831021836 | 74 | 360 | 4.0 | 8.0 | 0.00 | 0.29 | 0.28 | 89 | 1012.3 |
| 20260831021327 | 74 | 360 | 4.0 | 8.0 | 0.00 | 0.29 | 0.28 | 89 | 1012.5 |
| 20260831020835 | 74 | 360 | 3.0 | 6.0 | 0.00 | 0.29 | 0.28 | 89 | 1012.4 |
| 20260831020343 | 74 | 360 | 4.0 | 5.0 | 0.00 | 0.29 | 0.28 | 89 | 1012.5 |
| 20260831015832 | 74 | 360 | 3.0 | 7.0 | 0.00 | 0.29 | 0.28 | 89 | 1012.7 |
| 20260831015321 | 74 | 216 | 4.0 | 10.0 | 0.00 | 0.29 | 0.28 | 89 | 1012.4 |
| 20260831014857 | 74 | 360 | 6.0 | 10.0 | 0.00 | 0.29 | 0.28 | 90 | 1012.3 |
| 20260831014326 | 74 | 360 | 4.0 | 6.0 | 0.00 | 0.29 | 0.28 | 90 | 1012.4 |
| 20260831013839 | 74 | 360 | 3.0 | 9.0 | 0.00 | 0.29 | 0.28 | 90 | 1012.3 |
| 20260831013327 | 74 | 360 | 6.0 | 12.0 | 0.00 | 0.29 | 0.28 | 90 | 1012.2 |
| 20260831012837 | 73 | 360 | 7.0 | 12.0 | 0.00 | 0.29 | 0.28 | 90 | 1012.0 |
| 20260831012346 | 73 | 360 | 5.0 | 11.0 | 0.00 | 0.29 | 0.28 | 91 | 1012.1 |
| 20260831011857 | 73 | 360 | 4.0 | 7.0 | 0.00 | 0.29 | 0.28 | 91 | 1012.2 |
| 20260831011325 | 73 | 150 | 3.0 | 7.0 | 0.00 | 0.29 | 0.28 | 91 | 1012.4 |
| 20260831010833 | 73 | 360 | 4.0 | 6.0 | 0.00 | 0.29 | 0.28 | 91 | 1012.3 |
| 20260831010323 | 73 | 183 | 3.0 | 8.0 | 0.01 | 0.29 | 0.28 | 91 | 1012.1 |
| 20260831005826 | 73 | 176 | 4.0 | 8.0 | 0.01 | 0.29 | 0.28 | 91 | 1012.1 |
| 20260831005336 | 73 | 360 | 5.0 | 8.0 | 0.01 | 0.29 | 0.28 | 91 | 1012.1 |
| 20260831004826 | 73 | 360 | 4.0 | 9.0 | 0.01 | 0.29 | 0.28 | 91 | 1012.1 |
| 20260831004335 | 73 | 360 | 5.0 | 15.0 | 0.01 | 0.29 | 0.28 | 91 | 1012.0 |
| 20260831003843 | 73 | 360 | 7.0 | 15.0 | 0.01 | 0.29 | 0.28 | 92 | 1011.9 |
| 20260831003353 | 73 | 360 | 7.0 | 12.0 | 0.01 | 0.29 | 0.28 | 92 | 1012.0 |
| 20260831002840 | 73 | 360 | 4.0 | 14.0 | 0.01 | 0.29 | 0.28 | 92 | 1012.1 |
| 20260831002347 | 73 | 360 | 6.0 | 14.0 | 0.01 | 0.29 | 0.28 | 92 | 1012.1 |
| 20260831001857 | 73 | 360 | 5.0 | 13.0 | 0.01 | 0.29 | 0.28 | 92 | 1012.0 |
| 20260831001327 | 73 | 360 | 6.0 | 12.0 | 0.01 | 0.29 | 0.28 | 92 | 1011.8 |
| 20260831000836 | 73 | 360 | 5.0 | 11.0 | 0.01 | 0.29 | 0.28 | 92 | 1011.5 |
| 20260831000325 | 73 | 360 | 6.0 | 12.0 | 0.00 | 0.28 | 0.27 | 92 | 1011.4 |
| 20260830235832 | 73 | 360 | 8.0 | 12.0 | 0.00 | 0.28 | 0.27 | 92 | 1011.4 |
| 20260830235322 | 73 | 360 | 6.0 | 9.0 | 0.01 | 0.28 | 0.27 | 92 | 1011.4 |
| 20260830234831 | 73 | 360 | 5.0 | 11.0 | 0.01 | 0.28 | 0.27 | 92 | 1011.4 |
| 20260830234338 | 73 | 360 | 5.0 | 12.0 | 0.01 | 0.28 | 0.27 | 92 | 1011.4 |
| 20260830233826 | 73 | 360 | 6.0 | 12.0 | 0.01 | 0.28 | 0.27 | 92 | 1011.5 |
| 20260830233335 | 73 | 360 | 4.0 | 11.0 | 0.01 | 0.28 | 0.27 | 91 | 1011.8 |
| 20260830232825 | 73 | 360 | 5.0 | 8.0 | 0.01 | 0.28 | 0.27 | 91 | 1012.0 |
| 20260830232329 | 73 | 360 | 5.0 | 10.0 | 0.01 | 0.28 | 0.27 | 91 | 1011.9 |
| 20260830231839 | 73 | 360 | 4.0 | 10.0 | 0.01 | 0.28 | 0.27 | 91 | 1011.9 |
| 20260830231329 | 73 | 360 | 5.0 | 9.0 | 0.02 | 0.28 | 0.27 | 91 | 1012.3 |
| 20260830230836 | 73 | 360 | 4.0 | 11.0 | 0.02 | 0.28 | 0.27 | 91 | 1012.2 |
| 20260830230346 | 73 | 360 | 5.0 | 11.0 | 0.02 | 0.28 | 0.27 | 91 | 1012.1 |
| 20260830225835 | 73 | 360 | 6.0 | 11.0 | 0.02 | 0.28 | 0.27 | 91 | 1012.1 |
| 20260830225341 | 73 | 360 | 6.0 | 9.0 | 0.01 | 0.27 | 0.26 | 90 | 1012.3 |
| 20260830224830 | 73 | 360 | 5.0 | 9.0 | 0.01 | 0.27 | 0.26 | 90 | 1012.2 |
| 20260830224341 | 73 | 360 | 3.0 | 9.0 | 0.01 | 0.27 | 0.26 | 90 | 1012.4 |
| 20260830223828 | 73 | 171 | 4.0 | 8.0 | 0.01 | 0.27 | 0.26 | 89 | 1012.5 |
| 20260830223337 | 73 | 360 | 3.0 | 8.0 | 0.01 | 0.27 | 0.26 | 89 | 1012.5 |
| 20260830222826 | 74 | 360 | 4.0 | 7.0 | 0.01 | 0.27 | 0.26 | 88 | 1012.4 |
| 20260830222334 | 74 | 360 | 2.0 | 7.0 | 0.01 | 0.27 | 0.26 | 87 | 1012.3 |
| 20260830221824 | 74 | 360 | 3.0 | 9.0 | 0.01 | 0.27 | 0.26 | 86 | 1012.5 |
| 20260830221335 | 75 | 360 | 3.0 | 9.0 | 0.00 | 0.26 | 0.25 | 85 | 1012.4 |
| 20260830220822 | 75 | 360 | 4.0 | 9.0 | 0.01 | 0.26 | 0.25 | 85 | 1012.5 |
| 20260830220331 | 75 | 360 | 3.0 | 8.0 | 0.01 | 0.26 | 0.25 | 84 | 1012.4 |
| 20260830215840 | 75 | 360 | 4.0 | 8.0 | 0.01 | 0.26 | 0.25 | 84 | 1012.3 |
| 20260830215329 | 75 | 360 | 4.0 | 8.0 | 0.01 | 0.26 | 0.25 | 83 | 1012.3 |
| 20260830214839 | 75 | 360 | 4.0 | 11.0 | 0.02 | 0.27 | 0.25 | 83 | 1012.4 |
| 20260830214345 | 76 | 360 | 4.0 | 9.0 | 0.02 | 0.27 | 0.25 | 82 | 1012.3 |
| 20260830213832 | 76 | 360 | 4.0 | 9.0 | 0.02 | 0.27 | 0.25 | 82 | 1012.3 |
| 20260830213321 | 76 | 360 | 4.0 | 11.0 | 0.03 | 0.27 | 0.25 | 82 | 1012.2 |
| 20260830212829 | 76 | 360 | 4.0 | 11.0 | 0.03 | 0.27 | 0.25 | 82 | 1012.2 |
| 20260830212321 | 76 | 360 | 6.0 | 10.0 | 0.03 | 0.27 | 0.25 | 84 | 1012.3 |
| 20260830211831 | 76 | 360 | 6.0 | 11.0 | 0.04 | 0.27 | 0.25 | 84 | 1012.2 |
| 20260830211343 | 76 | 360 | 6.0 | 11.0 | 0.04 | 0.27 | 0.25 | 85 | 1012.2 |
| 20260830210829 | 76 | 360 | 4.0 | 9.0 | 0.04 | 0.26 | 0.24 | 85 | 1012.3 |
| 20260830210339 | 76 | 360 | 4.0 | 9.0 | 0.04 | 0.26 | 0.24 | 86 | 1012.4 |
| 20260830205829 | 76 | 360 | 2.0 | 9.0 | 0.05 | 0.26 | 0.24 | 86 | 1012.3 |
| 20260830205337 | 76 | 360 | 3.0 | 6.0 | 0.05 | 0.26 | 0.24 | 86 | 1012.4 |
| 20260830204826 | 75 | 360 | 1.0 | 5.0 | 0.04 | 0.25 | 0.23 | 86 | 1012.5 |
| 20260830204337 | 75 | 211 | 2.0 | 8.0 | 0.05 | 0.25 | 0.23 | 85 | 1012.4 |
| 20260830203825 | 75 | 360 | 3.0 | 12.0 | 0.06 | 0.25 | 0.23 | 85 | 1012.5 |
| 20260830203333 | 75 | 360 | 5.0 | 12.0 | 0.05 | 0.24 | 0.22 | 84 | 1012.6 |
| 20260830202842 | 75 | 360 | 5.0 | 12.0 | 0.06 | 0.24 | 0.22 | 85 | 1012.7 |
| 20260830202352 | 75 | 360 | 3.0 | 5.0 | 0.06 | 0.24 | 0.22 | 86 | 1012.7 |
| 20260830201840 | 75 | 360 | 2.0 | 6.0 | 0.06 | 0.23 | 0.21 | 86 | 1012.7 |
| 20260830201331 | 75 | 360 | 1.0 | 8.0 | 0.06 | 0.23 | 0.21 | 85 | 1012.9 |
| 20260830200837 | 75 | 212 | 2.0 | 8.0 | 0.06 | 0.22 | 0.20 | 86 | 1012.8 |
| 20260830200325 | 75 | 360 | 3.0 | 8.0 | 0.07 | 0.22 | 0.20 | 86 | 1012.8 |
| 20260830195830 | 74 | 360 | 2.0 | 9.0 | 0.06 | 0.21 | 0.19 | 86 | 1012.6 |
| 20260830195340 | 74 | 360 | 4.0 | 11.0 | 0.07 | 0.21 | 0.19 | 86 | 1012.2 |
| 20260830194828 | 74 | 200 | 5.0 | 11.0 | 0.07 | 0.21 | 0.19 | 86 | 1012.3 |
| 20260830194340 | 74 | 185 | 5.0 | 12.0 | 0.07 | 0.20 | 0.18 | 87 | 1012.1 |
| 20260830193828 | 74 | 360 | 6.0 | 12.0 | 0.06 | 0.19 | 0.17 | 86 | 1012.2 |
| 20260830193337 | 74 | 360 | 6.0 | 12.0 | 0.06 | 0.19 | 0.17 | 86 | 1011.9 |
| 20260830192846 | 74 | 205 | 5.0 | 14.0 | 0.06 | 0.18 | 0.16 | 87 | 1011.8 |
| 20260830192401 | 73 | 360 | 8.0 | 14.0 | 0.06 | 0.18 | 0.16 | 87 | 1011.8 |
| 20260830191831 | 73 | 360 | 8.0 | 13.0 | 0.05 | 0.17 | 0.15 | 87 | 1011.6 |
| 20260830191339 | 73 | 198 | 8.0 | 13.0 | 0.05 | 0.17 | 0.15 | 88 | 1011.5 |
| 20260830190847 | 73 | 178 | 8.0 | 12.0 | 0.04 | 0.16 | 0.14 | 88 | 1011.7 |
| 20260830190358 | 73 | 360 | 7.0 | 12.0 | 0.03 | 0.15 | 0.13 | 87 | 1011.9 |
| 20260830185846 | 74 | 360 | 8.0 | 12.0 | 0.03 | 0.15 | 0.13 | 87 | 1012.1 |
| 20260830185332 | 74 | 193 | 4.0 | 13.0 | 0.02 | 0.14 | 0.12 | 86 | 1011.9 |
| 20260830184822 | 74 | 360 | 5.0 | 15.0 | 0.02 | 0.14 | 0.12 | 87 | 1012.1 |
| 20260830184333 | 73 | 212 | 9.0 | 15.0 | 0.01 | 0.13 | 0.11 | 87 | 1012.3 |
| 20260830183835 | 74 | 360 | 5.0 | 19.0 | 0.01 | 0.13 | 0.11 | 86 | 1012.2 |
| 20260830183323 | 75 | 360 | 6.0 | 19.0 | 0.01 | 0.13 | 0.11 | 83 | 1012.3 |
| 20260830182833 | 77 | 202 | 9.0 | 15.0 | 0.00 | 0.12 | 0.10 | 79 | 1012.3 |
| 20260830182323 | 79 | 360 | 6.0 | 12.0 | 0.00 | 0.12 | 0.10 | 73 | 1012.8 |
| 20260830181833 | 79 | 360 | 4.0 | 14.0 | 0.00 | 0.12 | 0.10 | 70 | 1012.6 |
| 20260830181343 | 80 | 360 | 7.0 | 14.0 | 0.00 | 0.12 | 0.10 | 68 | 1012.1 |
| 20260830180850 | 80 | 360 | 5.0 | 14.0 | 0.00 | 0.12 | 0.10 | 68 | 1011.7 |
| 20260830180339 | 80 | 360 | 6.0 | 14.0 | 0.00 | 0.12 | 0.10 | 68 | 1011.4 |
| 20260830175828 | 80 | 176 | 6.0 | 15.0 | 0.00 | 0.12 | 0.10 | 67 | 1011.2 |
| 20260830175337 | 80 | 360 | 7.0 | 15.0 | 0.00 | 0.12 | 0.10 | 68 | 1011.0 |
| 20260830174846 | 79 | 360 | 8.0 | 14.0 | 0.00 | 0.12 | 0.10 | 69 | 1011.0 |
| 20260830174333 | 79 | 360 | 7.0 | 13.0 | 0.00 | 0.12 | 0.10 | 69 | 1011.0 |
| 20260830173821 | 79 | 360 | 9.0 | 13.0 | 0.00 | 0.12 | 0.10 | 70 | 1011.1 |
| 20260830173331 | 79 | 360 | 5.0 | 12.0 | 0.00 | 0.12 | 0.10 | 71 | 1011.2 |
| 20260830172840 | 78 | 360 | 8.0 | 12.0 | 0.00 | 0.12 | 0.10 | 71 | 1011.1 |
| 20260830172327 | 78 | 208 | 6.0 | 16.0 | 0.00 | 0.12 | 0.10 | 71 | 1011.2 |
| 20260830171837 | 79 | 171 | 8.0 | 18.0 | 0.00 | 0.12 | 0.10 | 70 | 1011.1 |
| 20260830171329 | 79 | 360 | 12.0 | 18.0 | 0.00 | 0.12 | 0.10 | 69 | 1011.1 |
| 20260830170835 | 79 | 360 | 7.0 | 15.0 | 0.00 | 0.12 | 0.10 | 69 | 1011.3 |
| 20260830170324 | 80 | 360 | 6.0 | 19.0 | 0.00 | 0.12 | 0.10 | 69 | 1011.3 |
| 20260830165831 | 80 | 360 | 10.0 | 23.0 | 0.00 | 0.12 | 0.10 | 67 | 1011.2 |
| 20260830165408 | 81 | 360 | 9.0 | 23.0 | 0.00 | 0.12 | 0.10 | 66 | 1011.0 |
| 20260830164834 | 82 | 360 | 13.0 | 22.0 | 0.00 | 0.12 | 0.10 | 65 | 1011.1 |
| 20260830164323 | 82 | 360 | 7.0 | 16.0 | 0.00 | 0.12 | 0.10 | 67 | 1011.2 |
| 20260830163855 | 81 | 360 | 10.0 | 16.0 | 0.00 | 0.12 | 0.10 | 66 | 1011.2 |
| 20260830163323 | 81 | 208 | 7.0 | 17.0 | 0.00 | 0.12 | 0.10 | 68 | 1011.2 |
| 20260830162832 | 81 | 204 | 9.0 | 17.0 | 0.00 | 0.12 | 0.10 | 67 | 1011.2 |
| 20260830162340 | 81 | 360 | 9.0 | 17.0 | 0.00 | 0.12 | 0.10 | 69 | 1011.2 |
| 20260830161849 | 80 | 182 | 7.0 | 17.0 | 0.00 | 0.12 | 0.10 | 68 | 1011.3 |
| 20260830161340 | 80 | 360 | 7.0 | 13.0 | 0.00 | 0.12 | 0.10 | 70 | 1011.4 |
| 20260830160844 | 80 | 360 | 7.0 | 20.0 | 0.00 | 0.12 | 0.10 | 69 | 1011.4 |
| 20260830160353 | 80 | 360 | 7.0 | 20.0 | 0.00 | 0.12 | 0.10 | 70 | 1011.4 |
| 20260830155821 | 80 | 360 | 7.0 | 16.0 | 0.00 | 0.12 | 0.10 | 71 | 1011.4 |
| 20260830155354 | 79 | 360 | 8.0 | 19.0 | 0.00 | 0.12 | 0.10 | 71 | 1011.4 |
| 20260830154842 | 79 | 360 | 9.0 | 19.0 | 0.00 | 0.12 | 0.10 | 72 | 1011.4 |
| 20260830154351 | 78 | 360 | 6.0 | 15.0 | 0.00 | 0.12 | 0.10 | 75 | 1011.4 |
| 20260830153837 | 78 | 169 | 5.0 | 15.0 | 0.00 | 0.12 | 0.10 | 75 | 1011.4 |
| 20260830153347 | 78 | 360 | 6.0 | 15.0 | 0.00 | 0.12 | 0.10 | 75 | 1011.4 |
| 20260830152835 | 77 | 360 | 5.0 | 15.0 | 0.00 | 0.12 | 0.10 | 78 | 1011.3 |
| 20260830152324 | 76 | 360 | 7.0 | 15.0 | 0.00 | 0.12 | 0.10 | 78 | 1011.4 |
| 20260830151834 | 76 | 360 | 9.0 | 17.0 | 0.00 | 0.12 | 0.10 | 78 | 1011.4 |
| 20260830151342 | 76 | 360 | 8.0 | 17.0 | 0.00 | 0.12 | 0.10 | 79 | 1011.6 |
| 20260830150828 | 75 | 173 | 7.0 | 17.0 | 0.00 | 0.12 | 0.10 | 80 | 1011.6 |
| 20260830150335 | 75 | 360 | 8.0 | 14.0 | 0.00 | 0.12 | 0.10 | 80 | 1011.6 |
| 20260830145844 | 75 | 360 | 7.0 | 17.0 | 0.00 | 0.12 | 0.10 | 82 | 1011.5 |
| 20260830145350 | 74 | 360 | 4.0 | 17.0 | 0.00 | 0.12 | 0.10 | 83 | 1011.4 |
| 20260830144839 | 74 | 360 | 7.0 | 14.0 | 0.00 | 0.12 | 0.10 | 83 | 1011.5 |
| 20260830144332 | 73 | 178 | 5.0 | 13.0 | 0.00 | 0.12 | 0.10 | 85 | 1011.5 |
| 20260830143837 | 73 | 360 | 4.0 | 12.0 | 0.01 | 0.12 | 0.10 | 86 | 1011.6 |
| 20260830143323 | 72 | 360 | 5.0 | 13.0 | 0.01 | 0.12 | 0.10 | 88 | 1011.7 |
| 20260830142829 | 71 | 360 | 7.0 | 13.0 | 0.01 | 0.12 | 0.10 | 90 | 1011.8 |
| 20260830142338 | 71 | 360 | 3.0 | 11.0 | 0.01 | 0.12 | 0.10 | 90 | 1011.8 |
| 20260830141826 | 70 | 360 | 4.0 | 11.0 | 0.01 | 0.12 | 0.10 | 90 | 1011.8 |
| 20260830141338 | 70 | 166 | 4.0 | 8.0 | 0.02 | 0.12 | 0.10 | 90 | 1012.0 |
| 20260830140823 | 70 | 360 | 2.0 | 9.0 | 0.02 | 0.12 | 0.10 | 92 | 1012.0 |
| 20260830140332 | 70 | 360 | 3.0 | 9.0 | 0.02 | 0.12 | 0.10 | 91 | 1012.2 |
| 20260830135822 | 69 | 360 | 4.0 | 12.0 | 0.02 | 0.12 | 0.10 | 91 | 1012.0 |
| 20260830135358 | 69 | 360 | 4.0 | 12.0 | 0.03 | 0.12 | 0.10 | 91 | 1011.9 |
| 20260830134847 | 69 | 360 | 4.0 | 10.0 | 0.03 | 0.12 | 0.10 | 92 | 1011.9 |
| 20260830134358 | 69 | 360 | 3.0 | 11.0 | 0.04 | 0.12 | 0.10 | 92 | 1012.0 |
| 20260830133824 | 68 | 360 | 4.0 | 11.0 | 0.03 | 0.11 | 0.09 | 92 | 1012.2 |
| 20260830133337 | 68 | 360 | 5.0 | 11.0 | 0.04 | 0.11 | 0.09 | 92 | 1012.2 |
| 20260830132823 | 68 | 178 | 5.0 | 11.0 | 0.05 | 0.11 | 0.09 | 92 | 1012.1 |
| 20260830132400 | 68 | 360 | 6.0 | 10.0 | 0.06 | 0.11 | 0.09 | 92 | 1012.1 |
| 20260830131828 | 68 | 360 | 5.0 | 10.0 | 0.06 | 0.11 | 0.09 | 92 | 1012.2 |
| 20260830131339 | 68 | 360 | 7.0 | 10.0 | 0.06 | 0.10 | 0.08 | 92 | 1012.3 |
| 20260830130827 | 68 | 360 | 4.0 | 12.0 | 0.07 | 0.10 | 0.08 | 92 | 1012.4 |
| 20260830130338 | 68 | 165 | 5.0 | 12.0 | 0.07 | 0.10 | 0.08 | 92 | 1012.5 |
| 20260830125828 | 68 | 360 | 4.0 | 12.0 | 0.07 | 0.10 | 0.08 | 91 | 1012.6 |
| 20260830125336 | 68 | 360 | 4.0 | 10.0 | 0.06 | 0.09 | 0.07 | 91 | 1012.7 |
| 20260830124827 | 68 | 360 | 6.0 | 10.0 | 0.06 | 0.09 | 0.07 | 91 | 1012.8 |
| 20260830124337 | 68 | 360 | 4.0 | 10.0 | 0.05 | 0.08 | 0.06 | 91 | 1012.9 |
| 20260830123824 | 68 | 360 | 6.0 | 10.0 | 0.05 | 0.08 | 0.06 | 90 | 1012.8 |
| 20260830123334 | 68 | 360 | 2.0 | 7.0 | 0.04 | 0.07 | 0.05 | 90 | 1012.6 |
| 20260830122823 | 68 | 194 | 1.0 | 5.0 | 0.03 | 0.06 | 0.04 | 89 | 1012.9 |
| 20260830122332 | 69 | 360 | 3.0 | 7.0 | 0.03 | 0.06 | 0.04 | 88 | 1012.9 |
| 20260830121841 | 69 | 360 | 2.0 | 8.0 | 0.02 | 0.05 | 0.03 | 87 | 1013.1 |
| 20260830121331 | 69 | 360 | 1.0 | 8.0 | 0.02 | 0.04 | 0.02 | 86 | 1013.2 |
| 20260830120837 | 69 | 205 | 1.0 | 8.0 | 0.01 | 0.03 | 0.01 | 86 | 1013.4 |
| 20260830120327 | 70 | 360 | 5.0 | 9.0 | 0.01 | 0.03 | 0.01 | 85 | 1013.2 |
| 20260830115836 | 70 | 360 | 4.0 | 9.0 | 0.01 | 0.03 | 0.01 | 85 | 1013.1 |
| 20260830115326 | 70 | 189 | 4.0 | 12.0 | 0.01 | 0.03 | 0.01 | 85 | 1012.8 |
| 20260830114835 | 70 | 360 | 4.0 | 12.0 | 0.01 | 0.03 | 0.01 | 85 | 1012.7 |
| 20260830114327 | 70 | 360 | 5.0 | 11.0 | 0.01 | 0.03 | 0.01 | 84 | 1012.8 |
| 20260830113834 | 70 | 360 | 4.0 | 11.0 | 0.01 | 0.03 | 0.01 | 84 | 1012.7 |
| 20260830113343 | 70 | 360 | 5.0 | 8.0 | 0.01 | 0.03 | 0.01 | 84 | 1012.6 |
| 20260830112829 | 70 | 360 | 5.0 | 10.0 | 0.01 | 0.03 | 0.01 | 83 | 1012.7 |
| 20260830112334 | 70 | 360 | 5.0 | 14.0 | 0.01 | 0.03 | 0.01 | 83 | 1012.4 |
| 20260830111843 | 71 | 360 | 8.0 | 14.0 | 0.01 | 0.03 | 0.01 | 82 | 1012.1 |
| 20260830111333 | 71 | 360 | 5.0 | 12.0 | 0.00 | 0.02 | 0.00 | 80 | 1012.3 |
| 20260830110840 | 72 | 360 | 5.0 | 12.0 | 0.00 | 0.02 | 0.00 | 78 | 1012.3 |
| 20260830110328 | 72 | 360 | 6.0 | 11.0 | 0.00 | 0.02 | 0.00 | 77 | 1012.1 |
| 20260830105836 | 72 | 360 | 5.0 | 11.0 | 0.00 | 0.02 | 0.00 | 76 | 1012.1 |
| 20260830105324 | 72 | 360 | 8.0 | 11.0 | 0.00 | 0.02 | 0.00 | 75 | 1012.1 |
| 20260830104833 | 72 | 360 | 5.0 | 10.0 | 0.00 | 0.02 | 0.00 | 75 | 1012.2 |
| 20260830104324 | 73 | 360 | 5.0 | 10.0 | 0.00 | 0.02 | 0.00 | 75 | 1012.1 |
| 20260830103829 | 73 | 360 | 5.0 | 10.0 | 0.00 | 0.02 | 0.02 | 75 | 1012.3 |
| 20260830103339 | 73 | 360 | 4.0 | 8.0 | 0.00 | 0.02 | 0.02 | 75 | 1012.2 |
| 20260830102829 | 73 | 205 | 5.0 | 7.0 | 0.00 | 0.02 | 0.02 | 74 | 1012.3 |
| 20260830102337 | 73 | 201 | 2.0 | 10.0 | 0.00 | 0.02 | 0.02 | 74 | 1012.3 |
| 20260830101827 | 73 | 360 | 3.0 | 10.0 | 0.00 | 0.02 | 0.02 | 74 | 1012.1 |
| 20260830101338 | 73 | 360 | 3.0 | 17.0 | 0.00 | 0.02 | 0.02 | 74 | 1012.1 |
| 20260830100827 | 73 | 360 | 4.0 | 17.0 | 0.00 | 0.02 | 0.02 | 74 | 1012.0 |
| 20260830100335 | 73 | 175 | 5.0 | 14.0 | 0.00 | 0.02 | 0.02 | 74 | 1011.9 |
| 20260830095825 | 73 | 360 | 8.0 | 15.0 | 0.00 | 0.02 | 0.02 | 73 | 1011.8 |
| 20260830095335 | 73 | 360 | 5.0 | 15.0 | 0.00 | 0.02 | 0.02 | 73 | 1011.9 |
| 20260830094825 | 73 | 360 | 4.0 | 10.0 | 0.00 | 0.02 | 0.02 | 73 | 1011.8 |
| 20260830094357 | 73 | 360 | 6.0 | 10.0 | 0.00 | 0.02 | 0.02 | 73 | 1011.7 |
| 20260830093845 | 73 | 360 | 4.0 | 15.0 | 0.00 | 0.02 | 0.02 | 73 | 1011.6 |
| 20260830093356 | 73 | 360 | 8.0 | 15.0 | 0.00 | 0.02 | 0.02 | 73 | 1011.5 |
| 20260830092824 | 73 | 360 | 7.0 | 15.0 | 0.00 | 0.02 | 0.02 | 73 | 1011.5 |
| 20260830092359 | 73 | 360 | 8.0 | 15.0 | 0.00 | 0.02 | 0.02 | 73 | 1011.5 |
| 20260830091848 | 72 | 360 | 6.0 | 15.0 | 0.00 | 0.02 | 0.02 | 73 | 1011.5 |
| 20260830091338 | 72 | 360 | 5.0 | 16.0 | 0.00 | 0.02 | 0.02 | 73 | 1011.5 |
| 20260830090826 | 72 | 360 | 9.0 | 16.0 | 0.00 | 0.02 | 0.02 | 73 | 1011.6 |
| 20260830090337 | 72 | 360 | 8.0 | 13.0 | 0.00 | 0.02 | 0.02 | 73 | 1011.5 |
| 20260830085847 | 72 | 360 | 9.0 | 13.0 | 0.00 | 0.02 | 0.02 | 73 | 1011.6 |
| 20260830085336 | 72 | 360 | 7.0 | 13.0 | 0.00 | 0.02 | 0.02 | 73 | 1011.4 |
| 20260830084844 | 72 | 360 | 7.0 | 15.0 | 0.00 | 0.02 | 0.02 | 73 | 1011.5 |
| 20260830084355 | 72 | 360 | 5.0 | 17.0 | 0.01 | 0.02 | 0.02 | 74 | 1011.5 |
| 20260830083822 | 72 | 360 | 9.0 | 17.0 | 0.01 | 0.02 | 0.02 | 74 | 1011.5 |
| 20260830083327 | 72 | 360 | 6.0 | 15.0 | 0.01 | 0.02 | 0.02 | 74 | 1011.4 |
| 20260830082836 | 72 | 360 | 6.0 | 16.0 | 0.01 | 0.02 | 0.02 | 74 | 1011.4 |
| 20260830082325 | 71 | 360 | 9.0 | 16.0 | 0.01 | 0.02 | 0.02 | 74 | 1011.5 |
| 20260830081833 | 71 | 360 | 7.0 | 15.0 | 0.01 | 0.02 | 0.02 | 76 | 1011.6 |
| 20260830081324 | 71 | 160 | 7.0 | 12.0 | 0.01 | 0.02 | 0.02 | 76 | 1011.7 |
| 20260830080832 | 71 | 360 | 5.0 | 10.0 | 0.01 | 0.02 | 0.02 | 77 | 1011.8 |
| 20260830080340 | 71 | 360 | 6.0 | 10.0 | 0.01 | 0.02 | 0.02 | 77 | 1011.9 |
| 20260830075850 | 71 | 360 | 4.0 | 9.0 | 0.01 | 0.02 | 0.02 | 76 | 1012.0 |
| 20260830075336 | 72 | 360 | 5.0 | 15.0 | 0.01 | 0.02 | 0.02 | 75 | 1012.1 |
| 20260830074824 | 72 | 360 | 7.0 | 15.0 | 0.01 | 0.02 | 0.02 | 74 | 1012.3 |
| 20260830074336 | 73 | 360 | 4.0 | 9.0 | 0.00 | 0.01 | 0.01 | 72 | 1012.5 |
| 20260830073824 | 73 | 360 | 2.0 | 14.0 | 0.00 | 0.01 | 0.01 | 71 | 1012.7 |
| 20260830073334 | 73 | 360 | 4.0 | 14.0 | 0.00 | 0.01 | 0.01 | 71 | 1012.7 |
| 20260830072823 | 73 | 360 | 4.0 | 9.0 | 0.00 | 0.01 | 0.01 | 72 | 1012.7 |
| 20260830072331 | 73 | 360 | 4.0 | 9.0 | 0.00 | 0.01 | 0.01 | 72 | 1012.7 |
| 20260830071821 | 73 | 360 | 4.0 | 7.0 | 0.00 | 0.01 | 0.01 | 73 | 1012.8 |
| 20260830071332 | 73 | 360 | 3.0 | 9.0 | 0.00 | 0.01 | 0.01 | 72 | 1012.9 |
| 20260830070841 | 73 | 360 | 4.0 | 9.0 | 0.00 | 0.01 | 0.01 | 72 | 1012.9 |
| 20260830070355 | 73 | 360 | 4.0 | 8.0 | 0.00 | 0.01 | 0.01 | 73 | 1012.8 |
| 20260830065843 | 73 | 360 | 3.0 | 8.0 | 0.00 | 0.01 | 0.01 | 73 | 1013.0 |
| 20260830065332 | 73 | 165 | 3.0 | 6.0 | 0.00 | 0.01 | 0.01 | 73 | 1012.9 |
| 20260830064843 | 73 | 188 | 4.0 | 10.0 | 0.00 | 0.01 | 0.01 | 73 | 1012.8 |
| 20260830064353 | 73 | 188 | 3.0 | 10.0 | 0.00 | 0.01 | 0.01 | 73 | 1012.9 |
| 20260830063839 | 73 | 360 | 5.0 | 9.0 | 0.00 | 0.01 | 0.01 | 73 | 1012.8 |
| 20260830063329 | 73 | 360 | 3.0 | 9.0 | 0.00 | 0.01 | 0.01 | 73 | 1012.7 |
| 20260830062837 | 73 | 360 | 4.0 | 8.0 | 0.00 | 0.01 | 0.01 | 73 | 1012.7 |
| 20260830062328 | 73 | 360 | 3.0 | 7.0 | 0.00 | 0.01 | 0.01 | 73 | 1012.9 |
| 20260830061840 | 73 | 360 | 3.0 | 6.0 | 0.00 | 0.01 | 0.01 | 73 | 1013.0 |
| 20260830061350 | 73 | 360 | 3.0 | 7.0 | 0.00 | 0.01 | 0.01 | 72 | 1013.1 |
| 20260830060837 | 73 | 360 | 3.0 | 7.0 | 0.00 | 0.01 | 0.01 | 72 | 1013.1 |
| 20260830060327 | 73 | 160 | 4.0 | 7.0 | 0.00 | 0.01 | 0.01 | 72 | 1013.1 |
| 20260830055837 | 73 | 360 | 3.0 | 9.0 | 0.00 | 0.01 | 0.01 | 72 | 1013.1 |
| 20260830055328 | 73 | 171 | 4.0 | 9.0 | 0.00 | 0.01 | 0.01 | 72 | 1013.1 |
| 20260830054838 | 73 | 360 | 4.0 | 8.0 | 0.00 | 0.01 | 0.01 | 72 | 1013.1 |
| 20260830054348 | 73 | 360 | 4.0 | 13.0 | 0.00 | 0.01 | 0.01 | 73 | 1013.1 |
| 20260830053833 | 73 | 360 | 7.0 | 13.0 | 0.00 | 0.01 | 0.01 | 73 | 1013.1 |
| 20260830053323 | 73 | 360 | 5.0 | 10.0 | 0.00 | 0.01 | 0.01 | 73 | 1013.1 |
| 20260830052856 | 73 | 360 | 5.0 | 10.0 | 0.00 | 0.01 | 0.01 | 73 | 1013.1 |
| 20260830052325 | 73 | 360 | 5.0 | 11.0 | 0.00 | 0.01 | 0.01 | 73 | 1013.1 |
| 20260830051901 | 73 | 360 | 6.0 | 14.0 | 0.00 | 0.01 | 0.01 | 73 | 1013.1 |
| 20260830051325 | 73 | 360 | 3.0 | 15.0 | 0.00 | 0.01 | 0.01 | 74 | 1013.1 |
| 20260830050833 | 73 | 360 | 6.0 | 15.0 | 0.00 | 0.01 | 0.01 | 74 | 1012.9 |
| 20260830050343 | 73 | 360 | 8.0 | 13.0 | 0.00 | 0.01 | 0.01 | 74 | 1012.9 |
| 20260830045826 | 73 | 360 | 5.0 | 14.0 | 0.00 | 0.01 | 0.01 | 74 | 1012.9 |
| 20260830045335 | 73 | 360 | 5.0 | 12.0 | 0.00 | 0.01 | 0.01 | 74 | 1012.8 |
| 20260830044826 | 73 | 360 | 6.0 | 16.0 | 0.00 | 0.01 | 0.01 | 74 | 1012.8 |
| 20260830044337 | 73 | 360 | 9.0 | 16.0 | 0.00 | 0.01 | 0.01 | 75 | 1012.8 |
| 20260830043825 | 73 | 360 | 7.0 | 15.0 | 0.00 | 0.01 | 0.01 | 75 | 1012.8 |
| 20260830043336 | 73 | 360 | 8.0 | 14.0 | 0.00 | 0.01 | 0.01 | 75 | 1012.9 |
| 20260830042826 | 73 | 360 | 5.0 | 11.0 | 0.00 | 0.01 | 0.01 | 75 | 1012.9 |
| 20260830042337 | 73 | 360 | 6.0 | 11.0 | 0.00 | 0.01 | 0.01 | 76 | 1013.0 |
| 20260830041826 | 73 | 360 | 5.0 | 12.0 | 0.00 | 0.01 | 0.01 | 76 | 1013.0 |
| 20260830041336 | 73 | 360 | 6.0 | 13.0 | 0.00 | 0.01 | 0.01 | 76 | 1013.2 |
| 20260830040825 | 73 | 360 | 6.0 | 13.0 | 0.00 | 0.01 | 0.01 | 76 | 1013.0 |
| 20260830040334 | 73 | 360 | 6.0 | 12.0 | 0.00 | 0.01 | 0.01 | 76 | 1013.0 |
| 20260830035826 | 73 | 360 | 5.0 | 11.0 | 0.00 | 0.01 | 0.01 | 76 | 1013.1 |
| 20260830035358 | 73 | 360 | 4.0 | 12.0 | 0.00 | 0.01 | 0.01 | 76 | 1013.1 |
| 20260830034846 | 73 | 360 | 7.0 | 15.0 | 0.00 | 0.01 | 0.01 | 76 | 1013.1 |
| 20260830034356 | 73 | 360 | 5.0 | 15.0 | 0.00 | 0.01 | 0.01 | 76 | 1013.2 |
| 20260830033843 | 73 | 360 | 8.0 | 13.0 | 0.00 | 0.01 | 0.01 | 76 | 1013.2 |
| 20260830033359 | 73 | 360 | 6.0 | 13.0 | 0.00 | 0.01 | 0.01 | 76 | 1013.2 |
| 20260830032827 | 73 | 360 | 3.0 | 12.0 | 0.00 | 0.01 | 0.01 | 76 | 1013.2 |
| 20260830032338 | 73 | 360 | 4.0 | 14.0 | 0.00 | 0.01 | 0.01 | 76 | 1013.2 |
| 20260830031847 | 73 | 360 | 6.0 | 14.0 | 0.00 | 0.01 | 0.01 | 76 | 1013.2 |
| 20260830031359 | 73 | 360 | 6.0 | 12.0 | 0.00 | 0.01 | 0.01 | 76 | 1013.0 |
| 20260830030824 | 73 | 360 | 8.0 | 14.0 | 0.00 | 0.01 | 0.01 | 77 | 1013.2 |
| 20260830030334 | 73 | 360 | 5.0 | 14.0 | 0.00 | 0.01 | 0.01 | 77 | 1013.0 |
| 20260830025823 | 73 | 360 | 7.0 | 11.0 | 0.00 | 0.01 | 0.01 | 77 | 1013.2 |
| 20260830025332 | 73 | 360 | 4.0 | 10.0 | 0.00 | 0.01 | 0.01 | 77 | 1013.3 |